Bedminster, NJ

1:38 PM EST on December 10, 2016 (GMT -0500)
Somerset

Weather History for KSMQ - May, 2014

Change the Weather History Date:

Tuesday, May 6, 2014

  Actual Average Record
Temperature  
Mean Temperature 56 °F -  
Max Temperature 71 °F 68 °F 93 °F (1949)
Min Temperature 43 °F 44 °F 33 °F (1954)
Degree Days  
Heating Degree Days 9    
Growing Degree Days 6 (Base 50)    
Moisture  
Dew Point 31 °F    
Average Humidity 39    
Maximum Humidity 74    
Minimum Humidity 21    
Precipitation  
Precipitation 0.00 in - - ()
Sea Level Pressure  
Sea Level Pressure 29.94 in    
Wind  
Wind Speed 5 mph (NNW)    
Max Wind Speed 18 mph    
Max Gust Speed 26 mph    
Visibility 10 miles    
Events      
Averages and records for this station are not official NWS values.
T = Trace of Precipitation, MM = Missing Value Source: NWS Daily Summary

Daily Weather History Graph

Daily Weather History Graph

Search for Another Location

Airport or City:

Trip Planner

Search our weather history database for the weather conditions in past years. The results will help you decide how hot, cold, wet, or windy it might be!

Date:

Astronomy

May. 06, 2014 Rise Set
Actual Time 5:51 AM EDT 7:59 PM EDT
Civil Twilight 5:21 AM EDT 8:30 PM EDT
Nautical Twilight 4:44 AM EDT 9:07 PM EDT
Astronomical Twilight 4:04 AM EDT 9:47 PM EDT
Moon 12:05 PM EDT (5/6) 1:17 AM EDT (5/6)
Length of Visible Light 15h 08m
Length of Day
14h 08m
Waxing Crescent, 46% of the Moon is Illuminated
May 6
Waxing Crescent
May 6
First Quarter
May 14
Full
May 21
Last Quarter
May 28
New

Hourly Weather History & Observations

Time (EDT) Temp. Windchill Dew Point Humidity Pressure Visibility Wind Dir Wind Speed Gust Speed Precip Events Conditions
12:53 AM 53.1 °F - 24.1 °F 32% 29.89 in 10.0 mi North 4.6 mph - N/A   Clear
1:53 AM 48.9 °F - 25.0 °F 39% 29.88 in 10.0 mi NNE 3.5 mph - N/A   Clear
2:53 AM 43.0 °F - 30.9 °F 62% 29.88 in 10.0 mi Calm Calm - N/A   Clear
3:53 AM 44.1 °F 42.5 °F 34.0 °F 68% 29.89 in 10.0 mi NW 3.5 mph - N/A   Clear
7:53 AM 51.1 °F - 37.0 °F 59% 29.94 in 10.0 mi Calm Calm - N/A   Overcast
8:53 AM 55.9 °F - 34.0 °F 44% 29.95 in 10.0 mi WNW 3.5 mph - N/A   Overcast
10:53 AM 62.1 °F - 30.0 °F 30% 29.94 in 10.0 mi Calm Calm - N/A   Clear
11:53 AM 64.0 °F - 34.0 °F 33% 29.92 in 10.0 mi Calm Calm - N/A   Partly Cloudy
12:53 PM 66.0 °F - 28.9 °F 25% 29.91 in 10.0 mi NNW 8.1 mph - N/A   Scattered Clouds
1:53 PM 68.0 °F - 28.9 °F 23% 29.90 in 10.0 mi North 8.1 mph - N/A   Partly Cloudy
2:53 PM 69.1 °F - 30.0 °F 23% 29.88 in 10.0 mi WNW 8.1 mph - N/A   Partly Cloudy
3:53 PM 69.1 °F - 27.0 °F 21% 29.88 in 10.0 mi NNW 11.5 mph 19.6 mph N/A   Partly Cloudy
4:53 PM 69.1 °F - 28.9 °F 22% 29.88 in 10.0 mi NW 18.4 mph 25.3 mph N/A   Clear
5:53 PM 68.0 °F - 28.0 °F 22% 29.91 in 10.0 mi NNW 16.1 mph 26.5 mph N/A   Clear
6:53 PM 66.9 °F - 28.0 °F 23% 29.95 in 10.0 mi NNW 11.5 mph - N/A   Clear
7:53 PM 64.0 °F - 28.0 °F 26% 29.97 in 10.0 mi NNW 5.8 mph - N/A   Clear
8:53 PM 61.0 °F - 28.0 °F 29% 30.00 in 10.0 mi NNW 5.8 mph - N/A   Clear
9:53 PM 51.1 °F - 37.9 °F 61% 30.03 in 10.0 mi NW 5.8 mph - N/A   Clear
10:53 PM 46.9 °F - 37.0 °F 68% 30.05 in 10.0 mi Calm Calm - N/A   Clear
11:53 PM 43.0 °F 41.3 °F 35.1 °F 74% 30.07 in 10.0 mi SSE 3.5 mph - N/A   Clear